Jefferson, NC

1:08 AM EDT on May 01, 2017 (GMT -0400)
Ashe County

Weather History for KGEV - January, 2011

Change the Weather History Date:

Tuesday, January 25, 2011

  Actual Average Record
Temperature  
Mean Temperature 33 °F -  
Max Temperature 42 °F 45 °F 66 °F (1967)
Min Temperature 24 °F 26 °F 9 °F (2014)
Degree Days  
Heating Degree Days 32    
Moisture  
Dew Point 26 °F    
Average Humidity 75    
Maximum Humidity 100    
Minimum Humidity 49    
Precipitation  
Precipitation 0.09 in - - ()
Sea Level Pressure  
Sea Level Pressure 30.06 in    
Wind  
Wind Speed 1 mph (SE)    
Max Wind Speed 5 mph    
Max Gust Speed -    
Visibility 9 miles    
Events Rain    
Averages and records for this station are not official NWS values.
T = Trace of Precipitation, MM = Missing Value Source: NWS Daily Summary

Daily Weather History Graph

Daily Weather History Graph

Search for Another Location

Airport or City:

Trip Planner

Search our weather history database for the weather conditions in past years. The results will help you decide how hot, cold, wet, or windy it might be!

Date:

Astronomy

Jan. 25, 2011 Rise Set
Actual Time 7:32 AM EST 5:44 PM EST
Civil Twilight 7:04 AM EST 6:11 PM EST
Nautical Twilight 6:33 AM EST 6:42 PM EST
Astronomical Twilight 6:02 AM EST 7:13 PM EST
Moon No Moon Rise 10:46 AM EST (1/25)
Length of Visible Light 11h 06m
Length of Day
10h 11m
Waning Gibbous, 60% of the Moon is Illuminated
Jan 25
Waning Gibbous
Jan 26
Last Quarter
Feb 2
New
Feb 11
First Quarter
Feb 18
Full

Hourly Weather History & Observations

Time (EST) Temp. Windchill Dew Point Humidity Pressure Visibility Wind Dir Wind Speed Gust Speed Precip Events Conditions
12:03 AM 28.4 °F 24.6 °F 19.4 °F 69% 30.16 in 10.0 mi SSE 3.5 mph - N/A   Scattered Clouds
12:23 AM 28.4 °F - 19.4 °F 69% 30.15 in 10.0 mi Calm Calm - N/A   Clear
12:43 AM 28.4 °F - 19.4 °F 69% 30.15 in 10.0 mi Calm Calm - N/A   Clear
1:04 AM 28.4 °F - 19.4 °F 69% 30.14 in 10.0 mi Calm Calm - N/A   Clear
1:23 AM 28.4 °F - 19.4 °F 69% 30.13 in 10.0 mi Calm Calm - N/A   Clear
1:43 AM 26.6 °F - 19.4 °F 74% 30.13 in 10.0 mi Calm Calm - N/A   Clear
2:03 AM 26.6 °F 22.6 °F 19.4 °F 74% 30.14 in 10.0 mi SSE 3.5 mph - N/A   Clear
2:25 AM 26.6 °F - 19.4 °F 74% 30.14 in 10.0 mi Calm Calm - N/A   Clear
2:43 AM 26.6 °F - 19.4 °F 74% 30.14 in 10.0 mi Calm Calm - N/A   Clear
3:03 AM 26.6 °F - 19.4 °F 74% 30.14 in 10.0 mi Calm Calm - N/A   Clear
3:23 AM 26.6 °F - 19.4 °F 74% 30.12 in 10.0 mi Calm Calm - N/A   Clear
3:43 AM 24.8 °F - 19.4 °F 80% 30.12 in 10.0 mi Calm Calm - N/A   Clear
4:03 AM 28.4 °F - 19.4 °F 69% 30.11 in 10.0 mi Calm Calm - N/A   Clear
4:23 AM 28.4 °F - 19.4 °F 69% 30.11 in 10.0 mi Calm Calm - N/A   Clear
4:43 AM 28.4 °F - 19.4 °F 69% 30.11 in 10.0 mi Calm Calm - N/A   Mostly Cloudy
5:03 AM 26.6 °F - 19.4 °F 74% 30.11 in 10.0 mi Calm Calm - N/A   Mostly Cloudy
5:23 AM 24.8 °F - 19.4 °F 80% 30.11 in 10.0 mi Calm Calm - N/A   Scattered Clouds
5:43 AM 24.8 °F 19.1 °F 19.4 °F 80% 30.09 in 10.0 mi East 4.6 mph - N/A   Clear
6:03 AM 26.6 °F - 19.4 °F 74% 30.10 in 10.0 mi Calm Calm - N/A   Clear
6:23 AM 26.6 °F - 19.4 °F 74% 30.10 in 10.0 mi Calm Calm - N/A   Clear
6:44 AM 26.6 °F - 19.4 °F 74% 30.10 in 10.0 mi Calm Calm - N/A   Clear
7:03 AM 26.6 °F - 19.4 °F 74% 30.11 in 10.0 mi Calm Calm - N/A   Clear
7:25 AM 26.6 °F - 19.4 °F 74% 30.11 in 10.0 mi Calm Calm - N/A   Clear
8:04 AM 28.4 °F - 19.4 °F 69% 30.12 in 10.0 mi Calm Calm - N/A   Clear
8:23 AM 26.6 °F - 21.2 °F 80% 30.12 in 10.0 mi Calm Calm - N/A   Scattered Clouds
8:43 AM 28.4 °F 24.6 °F 21.2 °F 74% 30.12 in 10.0 mi NW 3.5 mph - N/A   Mostly Cloudy
9:03 AM 30.2 °F - 21.2 °F 69% 30.11 in 10.0 mi Calm Calm - N/A   Scattered Clouds
9:25 AM 32.0 °F - 23.0 °F 69% 30.11 in 10.0 mi Calm Calm - N/A   Mostly Cloudy
9:43 AM 30.2 °F - 21.2 °F 69% 30.10 in 10.0 mi Calm Calm - N/A   Mostly Cloudy
10:03 AM 33.8 °F - 23.0 °F 65% 30.10 in 10.0 mi Calm Calm - N/A   Mostly Cloudy
10:23 AM 33.8 °F - 23.0 °F 65% 30.10 in 10.0 mi Calm Calm - N/A   Scattered Clouds
10:43 AM 35.6 °F - 24.8 °F 65% 30.11 in 10.0 mi Calm Calm - N/A   Mostly Cloudy
11:03 AM 37.4 °F - 24.8 °F 60% 30.10 in 10.0 mi Calm Calm - N/A   Mostly Cloudy
11:23 AM 41.0 °F - 24.8 °F 53% 30.10 in 10.0 mi Calm Calm - N/A   Mostly Cloudy
11:43 AM 41.0 °F 39.0 °F 24.8 °F 53% 30.09 in 10.0 mi NNW 3.5 mph - N/A   Mostly Cloudy
12:03 PM 41.0 °F - 24.8 °F 53% 30.08 in 10.0 mi Calm Calm - N/A   Scattered Clouds
12:23 PM 41.0 °F - 24.8 °F 53% 30.06 in 10.0 mi Calm Calm - N/A   Scattered Clouds
12:43 PM 41.0 °F - 24.8 °F 53% 30.05 in 10.0 mi Calm Calm - N/A   Scattered Clouds
1:03 PM 42.8 °F - 24.8 °F 49% 30.04 in 10.0 mi Calm Calm - N/A   Scattered Clouds
1:23 PM 42.8 °F - 24.8 °F 49% 30.03 in 10.0 mi Calm Calm - N/A   Light Drizzle
1:44 PM 41.0 °F - 26.6 °F 57% 30.02 in 10.0 mi Calm Calm - N/A Rain Rain
2:05 PM 41.0 °F - 30.2 °F 65% 30.02 in 10.0 mi Calm Calm - N/A Rain Rain
2:23 PM 41.0 °F - 30.2 °F 65% 30.00 in 10.0 mi Calm Calm - N/A Rain Light Rain
2:43 PM 41.0 °F - 32.0 °F 70% 30.00 in 10.0 mi Calm Calm - N/A   Drizzle
3:22 PM 39.2 °F - 33.8 °F 81% 30.00 in 10.0 mi Calm Calm - 0.01 in Rain Light Rain
3:41 PM 39.2 °F - 35.6 °F 87% 29.98 in 7.0 mi Calm Calm - 0.02 in Rain Light Rain
4:22 PM 39.2 °F - 35.6 °F 87% 29.98 in 10.0 mi Calm Calm - N/A Rain Light Rain
4:41 PM 39.2 °F 37.0 °F 35.6 °F 87% 29.98 in 10.0 mi East 3.5 mph - 0.01 in Rain Light Rain
5:02 PM 39.2 °F - 35.6 °F 87% 29.99 in 10.0 mi Calm Calm - N/A   Light Drizzle
5:21 PM 39.2 °F - 35.6 °F 87% 29.97 in 7.0 mi Calm Calm - N/A Rain Light Rain
5:41 PM 37.4 °F - 35.6 °F 93% 29.97 in 10.0 mi Calm Calm - 0.01 in Rain Light Rain
6:01 PM 37.4 °F - 35.6 °F 93% 29.96 in 10.0 mi Calm Calm - N/A   Light Drizzle
6:21 PM 37.4 °F 34.9 °F 35.6 °F 93% 29.97 in 0.8 mi SSW 3.5 mph - 0.01 in Rain Light Rain
6:42 PM 35.6 °F - 33.8 °F 93% 29.96 in 4.0 mi Calm Calm - 0.03 in Rain Rain
7:02 PM 33.8 °F - 33.8 °F 100% 29.95 in 3.0 mi Calm Calm - N/A Rain Light Rain
7:22 PM 33.8 °F - 33.8 °F 100% 29.95 in 5.0 mi Calm Calm - N/A Rain Light Rain
7:41 PM 33.8 °F - 33.8 °F 100% 29.95 in 3.0 mi Calm Calm - 0.01 in Rain Light Rain
8:03 PM 33.8 °F - 32.0 °F 93% 29.94 in 5.0 mi Calm Calm - N/A Rain Rain
8:22 PM 33.8 °F - 32.0 °F 93% 29.93 in 5.0 mi Calm Calm - N/A   Light Drizzle
8:42 PM 33.8 °F - 32.0 °F 93% 29.93 in 3.0 mi Calm Calm - 0.01 in Rain Light Rain
9:02 PM 33.8 °F 29.6 °F 32.0 °F 93% 29.93 in 1.8 mi South 4.6 mph - N/A   Light Drizzle
9:22 PM 33.8 °F - 32.0 °F 93% 29.92 in 0.5 mi Calm Calm - N/A   Overcast
9:41 PM 32.0 °F - 32.0 °F 100% 29.91 in 0.2 mi Calm Calm - N/A   Overcast
10:02 PM 32.0 °F - 32.0 °F 100% 29.90 in 0.5 mi Calm Calm - N/A   Overcast
10:22 PM 33.8 °F - 32.0 °F 93% 29.90 in 0.5 mi Calm Calm - N/A   Overcast
10:41 PM 33.8 °F - 32.0 °F 93% 29.88 in 0.8 mi Calm Calm - 0.01 in   Overcast
11:02 PM 33.8 °F - 32.0 °F 93% 29.87 in 0.8 mi Calm Calm - N/A   Overcast
11:21 PM 33.8 °F - 33.8 °F 100% 29.87 in 0.8 mi Calm Calm - N/A   Overcast
11:42 PM 33.8 °F - 33.8 °F 100% 29.87 in 0.8 mi Calm Calm - N/A   Drizzle